Cedar, IA

11:17 AM CDT on September 29, 2016 (GMT -0500)
Oskaloosa Municipal

Weather History for KOOA - May, 2014

Change the Weather History Date:

Wednesday, May 28, 2014

  Actual Average (KOTM) Record (KOTM)
Temperature  
Mean Temperature 73 °F 65 °F  
Max Temperature 84 °F 76 °F 93 °F (2006)
Min Temperature 62 °F 55 °F 35 °F (1928)
Degree Days  
Heating Degree Days 0 3  
Month to date heating degree days 159  
Since 1 July heating degree days 6289  
Cooling Degree Days 8 3  
Month to date cooling degree days 45  
Year to date cooling degree days 56  
Growing Degree Days 23 (Base 50)    
Moisture  
Dew Point 64 °F    
Average Humidity 76    
Maximum Humidity 97    
Minimum Humidity 46    
Precipitation  
Precipitation 0.00 in 0.16 in 3.95 in (1908)
Month to date precipitation 4.22  
Year to date precipitation 12.04  
Sea Level Pressure  
Sea Level Pressure 29.95 in    
Wind  
Wind Speed 5 mph (North)    
Max Wind Speed 15 mph    
Max Gust Speed 21 mph    
Visibility 10 miles    
Events      
T = Trace of Precipitation, MM = Missing Value Source: NWS Daily Summary

Daily Weather History Graph

Daily Weather History Graph

Search for Another Location

Airport or City:

Trip Planner

Search our weather history database for the weather conditions in past years. The results will help you decide how hot, cold, wet, or windy it might be!

Date:

Astronomy

May. 28, 2014 Rise Set
Actual Time 5:41 AM CDT 8:33 PM CDT
Civil Twilight 5:08 AM CDT 9:06 PM CDT
Nautical Twilight 4:27 AM CDT 9:47 PM CDT
Astronomical Twilight 3:39 AM CDT 10:35 PM CDT
Moon 5:48 AM CDT (5/28) 8:31 PM CDT (5/28)
Length of Visible Light 15h 57m
Length of Day
14h 52m
Waning Crescent, 0% of the Moon is Illuminated
May 28
Waning Crescent
May 28
New
Jun 5
First Quarter
Jun 12
Full
Jun 19
Last Quarter

Hourly Weather History & Observations

Time (CDT) Temp. Heat Index Dew Point Humidity Pressure Visibility Wind Dir Wind Speed Gust Speed Precip Events Conditions
12:15 AM 65.7 °F - 62.6 °F 90% 29.94 in 10.0 mi Calm Calm - N/A   Mostly Cloudy
12:35 AM 65.3 °F - 62.6 °F 91% 29.94 in 10.0 mi Calm Calm - N/A   Scattered Clouds
12:55 AM 64.9 °F - 62.2 °F 91% 29.94 in 10.0 mi Calm Calm - N/A   Mostly Cloudy
1:15 AM 65.1 °F - 63.0 °F 93% 29.94 in 10.0 mi SSE 3.5 mph - N/A   Overcast
1:35 AM 65.5 °F - 63.5 °F 93% 29.94 in 10.0 mi Calm Calm - N/A   Overcast
1:55 AM 65.3 °F - 63.5 °F 94% 29.94 in 10.0 mi Calm Calm - N/A   Overcast
2:15 AM 66.0 °F - 63.9 °F 93% 29.93 in 10.0 mi Calm Calm - N/A   Overcast
2:35 AM 65.5 °F - 63.5 °F 93% 29.93 in 10.0 mi WNW 5.8 mph - N/A   Scattered Clouds
2:55 AM 65.3 °F - 63.5 °F 94% 29.93 in 10.0 mi West 4.6 mph - N/A   Mostly Cloudy
3:15 AM 65.3 °F - 63.5 °F 94% 29.93 in 10.0 mi SSW 4.6 mph - N/A   Mostly Cloudy
3:35 AM 64.4 °F - 62.8 °F 94% 29.93 in 10.0 mi SSW 4.6 mph - N/A   Scattered Clouds
3:55 AM 63.9 °F - 62.6 °F 96% 29.92 in 10.0 mi SW 4.6 mph - N/A   Clear
4:15 AM 63.3 °F - 62.2 °F 96% 29.92 in 7.0 mi West 5.8 mph - N/A   Clear
4:35 AM 63.9 °F - 62.8 °F 96% 29.92 in 10.0 mi West 6.9 mph - N/A   Clear
4:55 AM 63.9 °F - 62.8 °F 96% 29.92 in 10.0 mi West 6.9 mph - N/A   Clear
5:15 AM 63.5 °F - 62.4 °F 96% 29.92 in 10.0 mi West 5.8 mph - N/A   Clear
5:35 AM 63.1 °F - 62.1 °F 96% 29.92 in 7.0 mi WNW 5.8 mph - N/A   Clear
5:55 AM 63.0 °F - 62.1 °F 97% 29.92 in 7.0 mi WNW 3.5 mph - N/A   Clear
6:15 AM 62.8 °F - 61.9 °F 97% 29.93 in 5.0 mi WNW 3.5 mph - N/A   Clear
6:35 AM 63.9 °F - 63.0 °F 97% 29.94 in 7.0 mi WNW 3.5 mph - N/A   Clear
6:55 AM 64.8 °F - 63.9 °F 97% 29.94 in 7.0 mi NW 4.6 mph - N/A   Clear
7:15 AM 66.6 °F - 64.2 °F 92% 29.95 in 10.0 mi NW 5.8 mph - N/A   Clear
7:35 AM 68.0 °F - 64.0 °F 87% 29.95 in 10.0 mi NNW 5.8 mph - N/A   Clear
7:55 AM 68.7 °F - 64.6 °F 87% 29.96 in 10.0 mi North 8.1 mph - N/A   Clear
8:15 AM 69.8 °F - 64.9 °F 84% 29.96 in 10.0 mi North 8.1 mph - N/A   Clear
8:35 AM 71.2 °F - 65.5 °F 82% 29.96 in 10.0 mi North 9.2 mph - N/A   Clear
8:55 AM 73.0 °F - 66.2 °F 79% 29.97 in 10.0 mi North 11.5 mph - N/A   Clear
9:15 AM 74.3 °F - 66.2 °F 76% 29.97 in 10.0 mi North 6.9 mph - N/A   Clear
9:35 AM 75.2 °F - 66.6 °F 74% 29.97 in 10.0 mi North 9.2 mph - N/A   Clear
9:55 AM 75.7 °F - 66.4 °F 73% 29.97 in 10.0 mi NNW 6.9 mph - N/A   Clear
10:15 AM 75.9 °F - 65.7 °F 70% 29.97 in 10.0 mi NNE 6.9 mph - N/A   Scattered Clouds
10:35 AM 76.6 °F - 64.6 °F 66% 29.98 in 10.0 mi North 5.8 mph - N/A   Scattered Clouds
10:55 AM 77.9 °F - 64.6 °F 63% 29.98 in 10.0 mi NNW 8.1 mph - N/A   Mostly Cloudy
11:15 AM 76.1 °F - 63.7 °F 65% 29.98 in 10.0 mi NNE 3.5 mph - N/A   Scattered Clouds
11:35 AM 77.9 °F - 62.8 °F 60% 29.98 in 10.0 mi Calm Calm - N/A   Scattered Clouds
11:55 AM 78.3 °F - 64.2 °F 62% 29.97 in 10.0 mi NNW 5.8 mph - N/A   Mostly Cloudy
12:15 PM 80.4 °F 81.8 °F 63.3 °F 56% 29.98 in 10.0 mi WNW 3.5 mph - N/A   Mostly Cloudy
12:35 PM 78.1 °F - 63.7 °F 61% 29.98 in 10.0 mi North 9.2 mph - N/A   Scattered Clouds
1:15 PM 80.6 °F 81.9 °F 63.3 °F 55% 29.97 in 10.0 mi North 10.4 mph - N/A   Scattered Clouds
1:35 PM 79.3 °F - 63.5 °F 58% 29.97 in 10.0 mi North 8.1 mph - N/A   Mostly Cloudy
1:55 PM 81.7 °F 83.0 °F 63.3 °F 54% 29.96 in 10.0 mi NW 9.2 mph - N/A   Mostly Cloudy
2:15 PM 82.9 °F 83.8 °F 62.4 °F 50% 29.96 in 10.0 mi WNW 8.1 mph - N/A   Mostly Cloudy
2:35 PM 83.3 °F 84.3 °F 63.0 °F 50% 29.95 in 10.0 mi NNW 10.4 mph - N/A   Scattered Clouds
2:55 PM 83.7 °F 84.5 °F 62.8 °F 49% 29.95 in 10.0 mi NNW 8.1 mph - N/A   Clear
3:15 PM 82.9 °F 83.7 °F 61.7 °F 49% 29.95 in 10.0 mi North 6.9 mph - N/A   Scattered Clouds
3:35 PM 84.4 °F 84.8 °F 61.5 °F 46% 29.94 in 10.0 mi North 5.8 mph - N/A   Mostly Cloudy
4:15 PM 78.8 °F - 65.7 °F 64% 29.95 in 10.0 mi ENE 11.5 mph - N/A   Overcast
4:35 PM 79.0 °F - 66.2 °F 65% 29.95 in 10.0 mi NE 15.0 mph 20.7 mph N/A   Overcast
4:55 PM 77.2 °F - 66.2 °F 69% 29.94 in 10.0 mi NE 10.4 mph - N/A   Overcast
5:15 PM 78.6 °F - 65.7 °F 64% 29.94 in 10.0 mi NE 9.2 mph - N/A   Mostly Cloudy
5:35 PM 81.3 °F 83.2 °F 65.3 °F 58% 29.94 in 10.0 mi NE 9.2 mph - N/A   Mostly Cloudy
5:55 PM 80.8 °F 82.6 °F 65.5 °F 59% 29.93 in 10.0 mi NE 9.2 mph - N/A   Mostly Cloudy
6:15 PM 80.6 °F 82.4 °F 64.9 °F 59% 29.93 in 10.0 mi ENE 10.4 mph - N/A   Scattered Clouds
6:35 PM 77.9 °F - 66.6 °F 68% 29.94 in 10.0 mi ENE 10.4 mph - N/A   Clear
6:55 PM 78.3 °F - 66.2 °F 66% 29.94 in 10.0 mi NE 10.4 mph 16.1 mph N/A   Clear
7:15 PM 78.4 °F - 65.1 °F 63% 29.95 in 10.0 mi NE 10.4 mph - N/A   Clear
7:35 PM 77.0 °F - 65.3 °F 67% 29.96 in 10.0 mi NE 9.2 mph - N/A   Clear
7:55 PM 76.1 °F - 65.3 °F 69% 29.96 in 10.0 mi NE 5.8 mph - N/A   Scattered Clouds
8:15 PM 75.6 °F - 65.3 °F 70% 29.97 in 10.0 mi East 9.2 mph - N/A   Mostly Cloudy
8:35 PM 75.0 °F - 65.3 °F 72% 29.97 in 10.0 mi East 10.4 mph - N/A   Overcast
8:55 PM 74.3 °F - 65.3 °F 73% 29.97 in 10.0 mi ENE 9.2 mph - N/A   Mostly Cloudy
9:35 PM 73.4 °F - 65.3 °F 76% 29.99 in 10.0 mi East 5.8 mph - N/A   Overcast
9:55 PM 72.5 °F - 64.8 °F 77% 29.99 in 10.0 mi East 6.9 mph - N/A   Scattered Clouds
10:15 PM 72.0 °F - 64.4 °F 77% 30.00 in 10.0 mi East 9.2 mph - N/A   Mostly Cloudy
10:35 PM 70.9 °F - 64.4 °F 80% 30.00 in 10.0 mi ENE 8.1 mph - N/A   Mostly Cloudy
10:55 PM 70.2 °F - 64.4 °F 82% 30.00 in 10.0 mi ENE 9.2 mph - N/A   Mostly Cloudy
11:15 PM 69.3 °F - 64.2 °F 84% 30.00 in 10.0 mi ENE 9.2 mph - N/A   Scattered Clouds
11:35 PM 69.1 °F - 64.4 °F 85% 30.00 in 10.0 mi ENE 10.4 mph - N/A   Clear
11:55 PM 68.9 °F - 64.4 °F 86% 30.00 in 10.0 mi ENE 12.7 mph - N/A   Scattered Clouds